TimeCDT,TemperatureF,Dew PointF,Humidity,Sea Level PressureIn,VisibilityMPH,Wind Direction,Wind SpeedMPH,Gust SpeedMPH,PrecipitationIn,Events,Conditions,WindDirDegrees,DateUTC
12:53 AM,46.9,45.0,93,30.12,10.0,Calm,Calm,-,N/A,,Overcast,0,2013-10-24 05:53:00
1:53 AM,48.0,46.0,93,30.13,10.0,Calm,Calm,-,N/A,,Overcast,0,2013-10-24 06:53:00
2:53 AM,48.0,45.0,89,30.12,10.0,Calm,Calm,-,N/A,,Overcast,0,2013-10-24 07:53:00
3:53 AM,45.0,43.0,93,30.12,10.0,NNE,3.5,-,N/A,,Partly Cloudy,30,2013-10-24 08:53:00
4:53 AM,42.1,41.0,96,30.12,10.0,Calm,Calm,-,N/A,,Clear,0,2013-10-24 09:53:00
5:53 AM,41.0,39.9,96,30.13,10.0,Calm,Calm,-,N/A,,Clear,0,2013-10-24 10:53:00
6:53 AM,44.1,43.0,96,30.15,10.0,Calm,Calm,-,N/A,,Clear,0,2013-10-24 11:53:00
7:53 AM,45.0,42.1,90,30.18,10.0,NE,6.9,-,N/A,,Clear,40,2013-10-24 12:53:00
8:53 AM,48.9,39.9,71,30.22,10.0,NNE,9.2,-,N/A,,Clear,30,2013-10-24 13:53:00
9:53 AM,52.0,37.0,57,30.25,10.0,NNE,13.8,17.3,N/A,,Clear,20,2013-10-24 14:53:00
10:53 AM,55.0,37.0,51,30.26,10.0,NE,10.4,-,N/A,,Clear,50,2013-10-24 15:53:00
11:53 AM,55.9,36.0,47,30.26,10.0,NNE,10.4,19.6,N/A,,Clear,20,2013-10-24 16:53:00
12:53 PM,57.9,37.0,46,30.26,10.0,North,10.4,17.3,N/A,,Clear,350,2013-10-24 17:53:00
1:53 PM,57.0,37.9,49,30.26,10.0,NW,10.4,-,N/A,,Scattered Clouds,320,2013-10-24 18:53:00
2:53 PM,55.9,39.0,53,30.27,10.0,North,9.2,-,N/A,,Mostly Cloudy,350,2013-10-24 19:53:00
3:53 PM,57.9,36.0,44,30.27,10.0,NNW,8.1,-,N/A,,Partly Cloudy,340,2013-10-24 20:53:00
4:53 PM,57.0,33.1,40,30.27,10.0,North,10.4,16.1,N/A,,Clear,350,2013-10-24 21:53:00
5:53 PM,53.1,30.0,41,30.28,10.0,North,6.9,-,N/A,,Clear,350,2013-10-24 22:53:00
6:53 PM,46.9,33.1,59,30.31,10.0,Calm,Calm,-,N/A,,Clear,0,2013-10-24 23:53:00
7:53 PM,45.0,32.0,60,30.33,10.0,North,4.6,-,N/A,,Clear,360,2013-10-25 00:53:00
8:53 PM,45.0,30.0,56,30.35,10.0,North,3.5,-,N/A,,Clear,360,2013-10-25 01:53:00
9:53 PM,45.0,30.0,56,30.38,10.0,North,5.8,-,N/A,,Clear,360,2013-10-25 02:53:00
10:53 PM,43.0,30.0,60,30.40,10.0,North,4.6,-,N/A,,Clear,350,2013-10-25 03:53:00
11:53 PM,43.0,28.9,58,30.42,10.0,NNE,6.9,-,N/A,,Clear,20,2013-10-25 04:53:00